{"data":{"norad_id":51136,"epoch":"2026-05-24T18:03:58.432896Z","epoch_age_seconds":99441,"freshness":"FRESH","line1":"1 51136U 22005AJ  26144.75275964  .00000782  00000+0  67259-4 0  9996","line2":"2 51136  53.2132 317.4561 0001245 101.2735 258.8397 15.08823908240217","mean_motion":15.08823908,"eccentricity":0.0001245,"inclination_deg":53.2132,"raan_deg":317.4561,"arg_perigee_deg":101.2735,"mean_anomaly_deg":258.8397,"bstar":6.7259e-5,"rev_number":24021,"period_min":95.438572544146,"perigee_km":538.93129397532,"apogee_km":540.6538584398,"semimajor_km":6917.9295762076,"source":"CELESTRAK","updated_at":"2026-05-25T13:38:16.913440Z"}}